DO9LL-1 Weather Reports


Display with metric or nautical units.
time (UTC)temp
F
wind
direction
speed
MPH
gust
MPH
rain 1hr
in
rain 24hr
in
rain mn
in
humidity
%
barometer
mb
20260902210733 62 120 0.0 1.0 0.00 0.00 0.00 85 1018.6
20260902205733 62 0.0 0.0 0.00 0.00 0.00 84 1018.6
20260902204736 62 149 0.0 1.0 0.00 0.00 0.00 84 1018.6
20260902203725 63 79 0.0 1.0 0.00 0.00 0.00 83 1018.8
20260902202723 63 0.0 0.0 0.00 0.00 0.00 83 1018.9
20260902201739 63 0.0 0.0 0.00 0.00 0.00 82 1018.8
20260902200740 63 0.0 0.0 0.00 0.00 0.00 81 1018.9
20260902195729 63 159 0.0 1.0 0.00 0.00 0.00 81 1018.7
20260902194727 63 154 0.0 1.0 0.00 0.00 0.00 82 1018.8
20260902193728 63 127 0.0 1.0 0.00 0.00 0.00 83 1018.9
20260902192720 63 0.0 0.0 0.00 0.00 0.00 84 1019.0
20260902191718 63 0.0 0.0 0.00 0.00 0.00 84 1018.9
20260902190736 63 0.0 0.0 0.00 0.00 0.00 84 1018.9
20260902185735 63 0.0 0.0 0.00 0.00 0.00 85 1018.9
20260902184737 63 251 1.0 2.0 0.00 0.00 0.00 85 1019.0
20260902183738 63 155 0.0 2.0 0.00 0.00 0.00 86 1018.8
20260902182736 63 143 0.0 1.0 0.00 0.00 0.00 85 1018.8
20260902181727 63 0.0 0.0 0.00 0.00 0.00 85 1018.7
20260902180745 63 0.0 0.0 0.00 0.00 0.00 85 1018.6
20260902175734 64 170 0.0 1.0 0.00 0.00 0.00 84 1018.6
20260902174737 64 161 0.0 1.0 0.00 0.00 0.00 83 1018.5
20260902173726 64 156 0.0 2.0 0.00 0.00 0.00 83 1018.6
20260902172723 64 169 0.0 1.0 0.00 0.00 0.00 81 1018.6
20260902171720 65 152 0.0 2.0 0.00 0.00 0.00 80 1018.7
20260902170717 66 140 0.0 3.0 0.00 0.00 0.00 78 1018.6
20260902165734 67 140 0.0 1.0 0.00 0.00 0.00 76 1018.7
20260902164731 65 0.0 0.0 0.00 0.00 0.00 80 1018.7
20260902163729 65 0.0 0.0 0.00 0.00 0.00 81 1018.8
20260902162725 64 0.0 0.0 0.00 0.00 0.00 81 1018.8
20260902161721 64 0.0 0.0 0.00 0.00 0.00 81 1018.8
20260902160718 64 169 0.0 1.0 0.00 0.00 0.00 80 1018.9
20260902155715 64 197 0.0 1.0 0.00 0.00 0.00 79 1019.0
20260902154732 63 267 1.0 2.0 0.00 0.00 0.00 79 1019.0
20260902153730 64 273 2.0 4.0 0.00 0.00 0.00 79 1019.2
20260902152727 66 303 2.0 6.0 0.00 0.00 0.00 74 1019.1
20260902151724 68 310 2.0 6.0 0.00 0.00 0.00 69 1018.9
20260902150721 68 254 1.0 3.0 0.00 0.00 0.00 68 1018.7
20260902145725 69 256 2.0 4.0 0.00 0.00 0.00 67 1018.8
20260902144735 70 255 1.0 6.0 0.00 0.00 0.00 67 1018.8
20260902143731 70 242 3.0 7.0 0.00 0.00 0.00 65 1018.7
20260902142729 70 251 3.0 6.0 0.00 0.00 0.00 63 1018.7
20260902141726 71 262 2.0 6.0 0.00 0.00 0.00 60 1018.8
20260902140722 73 260 2.0 8.0 0.00 0.00 0.00 60 1018.6
20260902135719 72 266 3.0 8.0 0.00 0.00 0.00 60 1018.6
20260902134716 71 258 3.0 4.0 0.00 0.00 0.00 65 1018.8
20260902133734 70 254 3.0 8.0 0.00 0.00 0.00 66 1018.8
20260902132730 71 268 2.0 6.0 0.00 0.00 0.00 64 1018.7
20260902131727 71 265 2.0 6.0 0.00 0.00 0.00 65 1018.9
20260902130725 69 265 3.0 6.0 0.00 0.00 0.00 67 1018.9
20260902125721 70 258 2.0 6.0 0.00 0.00 0.00 66 1019.0
20260902124718 70 261 3.0 6.0 0.00 0.00 0.00 66 1019.0
20260902123715 69 258 2.0 4.0 0.00 0.00 0.00 67 1019.1
20260902122737 69 256 3.0 6.0 0.00 0.00 0.00 66 1019.2
20260902121729 70 257 3.0 7.0 0.00 0.00 0.00 63 1019.1
20260902120727 69 253 3.0 6.0 0.00 0.00 0.00 64 1019.2
20260902115724 69 268 3.0 7.0 0.00 0.00 0.00 64 1019.1
20260902114721 69 240 3.0 6.0 0.00 0.00 0.00 64 1019.0
20260902113718 69 260 3.0 7.0 0.00 0.00 0.00 63 1019.0
20260902112740 69 257 3.0 10.0 0.00 0.00 0.00 64 1019.0
20260902111732 69 255 3.0 7.0 0.00 0.00 0.00 64 1019.1
20260902110735 70 245 3.0 7.0 0.00 0.00 0.00 63 1019.1
20260902105726 70 257 3.0 6.0 0.00 0.00 0.00 62 1019.2
20260902104722 70 256 2.0 6.0 0.00 0.00 0.00 64 1019.2
20260902103719 69 252 2.0 3.0 0.00 0.00 0.00 65 1019.2
20260902102721 69 268 3.0 6.0 0.00 0.00 0.00 65 1019.2
20260902101733 69 263 3.0 6.0 0.00 0.00 0.00 64 1019.3
20260902100730 69 256 2.0 4.0 0.00 0.00 0.00 63 1019.3
20260902095728 69 274 3.0 7.0 0.00 0.00 0.00 64 1019.3
20260902094726 68 249 3.0 6.0 0.00 0.00 0.00 66 1019.2
20260902093721 69 268 3.0 6.0 0.00 0.01 0.00 66 1019.2
20260902092718 68 254 3.0 7.0 0.00 0.01 0.00 68 1019.2
20260902091715 67 260 3.0 6.0 0.00 0.01 0.00 69 1019.3
20260902090733 67 270 4.0 8.0 0.00 0.01 0.00 69 1019.2
20260902085730 66 261 2.0 7.0 0.00 0.01 0.00 70 1019.3
20260902084727 66 265 3.0 6.0 0.00 0.01 0.00 71 1019.2
20260902083724 65 240 2.0 4.0 0.00 0.02 0.00 72 1019.2
20260902082722 64 258 2.0 4.0 0.00 0.04 0.00 75 1019.2
20260902081718 64 257 2.0 4.0 0.00 0.04 0.00 76 1019.0
20260902080735 63 260 2.0 3.0 0.00 0.05 0.00 77 1019.1
20260902075732 63 257 1.0 3.0 0.00 0.05 0.00 78 1019.1
20260902074729 62 252 2.0 4.0 0.00 0.05 0.00 80 1019.0
20260902073726 61 256 1.0 2.0 0.00 0.05 0.00 82 1019.0
20260902072724 61 256 1.0 2.0 0.00 0.05 0.00 82 1018.9
20260902071721 61 239 1.0 2.0 0.00 0.05 0.00 82 1019.0
20260902070717 61 256 1.0 3.0 0.00 0.05 0.00 83 1019.0
20260902065734 60 203 0.0 1.0 0.00 0.05 0.00 84 1018.9
20260902064731 59 152 0.0 2.0 0.00 0.05 0.00 84 1018.9
20260902063728 59 153 0.0 1.0 0.00 0.05 0.00 85 1018.8
20260902062726 58 0.0 0.0 0.00 0.05 0.00 85 1018.8
20260902061723 58 0.0 0.0 0.00 0.05 0.00 85 1018.7
20260902060720 58 0.0 0.0 0.00 0.05 0.00 85 1018.8
20260902055716 58 0.0 0.0 0.00 0.05 0.00 85 1018.9
20260902054734 58 156 0.0 1.0 0.00 0.05 0.00 85 1018.8
20260902053731 57 0.0 0.0 0.00 0.05 0.00 85 1018.9
20260902052732 57 136 0.0 1.0 0.00 0.05 0.00 86 1018.7
20260902051724 57 162 0.0 1.0 0.00 0.05 0.00 86 1018.6
20260902050721 56 0.0 0.0 0.00 0.05 0.00 87 1018.5
20260902045718 56 0.0 0.0 0.00 0.05 0.00 87 1018.6
20260902044715 56 0.0 0.0 0.00 0.05 0.00 86 1018.6
20260902043733 57 0.0 0.0 0.00 0.05 0.00 85 1018.5
20260902042741 57 0.0 0.0 0.00 0.05 0.00 85 1018.5
20260902041727 57 0.0 0.0 0.00 0.05 0.00 86 1018.6
20260902040724 57 0.0 0.0 0.00 0.05 0.00 86 1018.7
20260902035720 57 0.0 0.0 0.00 0.05 0.00 86 1018.7
20260902034718 57 0.0 0.0 0.00 0.05 0.00 86 1018.7
20260902033735 57 0.0 0.0 0.00 0.05 0.00 85 1018.8
20260902032732 57 0.0 0.0 0.00 0.05 0.00 85 1018.8
20260902031729 57 147 0.0 1.0 0.00 0.05 0.00 85 1018.8
20260902030726 57 0.0 0.0 0.00 0.05 0.00 85 1018.8
20260902025723 57 0.0 0.0 0.00 0.05 0.00 85 1018.8
20260902024720 57 150 0.0 1.0 0.00 0.05 0.00 85 1018.8
20260902023717 57 161 0.0 1.0 0.00 0.05 0.00 86 1018.9
20260902022735 57 0.0 0.0 0.00 0.05 0.00 86 1019.1
20260902021731 58 0.0 0.0 0.00 0.05 0.00 85 1019.1
20260902020730 58 0.0 0.0 0.00 0.05 0.00 84 1019.0
20260902015725 57 160 0.0 1.0 0.00 0.05 0.00 84 1019.0
20260902014722 58 143 0.0 1.0 0.00 0.05 0.00 84 1019.0
20260902013719 57 151 0.0 2.0 0.00 0.05 0.00 84 1019.0
20260902012721 58 166 0.0 1.0 0.00 0.05 0.00 83 1018.9
20260902011733 57 154 1.0 2.0 0.00 0.05 0.00 83 1019.0
20260902010731 57 151 0.0 2.0 0.00 0.05 0.00 83 1019.0
20260902005728 57 0.0 0.0 0.00 0.05 0.00 83 1019.0
20260902004724 57 159 1.0 2.0 0.00 0.05 0.00 84 1019.0
20260902003721 56 0.0 0.0 0.00 0.05 0.00 86 1019.0
20260902002719 56 0.0 0.0 0.00 0.05 0.00 87 1019.2
20260902001715 55 0.0 0.0 0.00 0.05 0.00 88 1019.2
20260902000733 55 157 0.0 1.0 0.00 0.05 0.00 89 1019.1
20260901235730 55 0.0 0.0 0.00 0.05 0.00 89 1019.2
20260901234727 55 178 0.0 1.0 0.00 0.05 0.00 88 1019.3
20260901233727 55 0.0 0.0 0.00 0.05 0.00 86 1019.3
20260901232721 55 0.0 0.0 0.00 0.05 0.00 86 1019.2
20260901231718 56 0.0 0.0 0.00 0.05 0.00 87 1019.1
20260901230735 55 0.0 0.0 0.00 0.05 0.00 87 1019.3
20260901225732 55 0.0 0.0 0.00 0.05 0.00 88 1019.3
20260901224729 55 0.0 0.0 0.00 0.05 0.00 88 1019.6
20260901223726 55 0.0 0.0 0.00 0.05 0.00 88 1019.7
20260901222723 54 0.0 0.0 0.00 0.05 0.00 88 1019.8
20260901221719 54 0.0 0.0 0.00 0.05 0.00 89 1019.8
20260901220717 54 0.0 0.0 0.00 0.05 0.00 88 1019.9
20260901215734 54 0.0 0.0 0.00 0.05 0.05 88 1019.9
20260901214731 54 0.0 0.0 0.00 0.05 0.05 86 1020.0
20260901213728 54 0.0 0.0 0.00 0.05 0.05 86 1019.9
20260901212725 54 0.0 0.0 0.00 0.05 0.05 85 1019.8
20260901211722 55 0.0 0.0 0.00 0.05 0.05 85 1019.6